This is the latest recevied weather packets stored in our database for station/object KF4CQ. If no packets are shown the sender has not sent any weather packets the latest 1 day(s).
| Time | Temp. | Humidity | Pressure | Rain* | Wind** | Luminosity | Snow |
|---|---|---|---|---|---|---|---|
| 1778012851 | 30° C | 45% | 1015.3 hPa | 0 mm | 0.45 m/s, 50° | 223 W/m² | - |
| 1778012547 | 30.56° C | 44% | 1015.6 hPa | 0 mm | 0 m/s | 169 W/m² | - |
| 1778012244 | 29.44° C | 45% | 1015.7 hPa | 0 mm | 0.45 m/s, 89° | 183 W/m² | - |
| 1778011942 | 29.44° C | 46% | 1015.7 hPa | 0 mm | 0.45 m/s, 64° | 154 W/m² | - |
| 1778011640 | 30.56° C | 45% | 1015.9 hPa | 0 mm | 0.89 m/s, 110° | 330 W/m² | - |
| 1778011337 | 30.56° C | 46% | 1015.7 hPa | 0 mm | 1.34 m/s, 209° | 419 W/m² | - |
| 1778011032 | 29.44° C | 47% | 1015.8 hPa | 0 mm | 0.45 m/s, 92° | 443 W/m² | - |
| 1778010730 | 30° C | 46% | 1016.1 hPa | 0 mm | 0 m/s | 188 W/m² | - |
| 1778010427 | 29.44° C | 47% | 1016.1 hPa | 0 mm | 1.34 m/s, 126° | 366 W/m² | - |
| 1778010123 | 29.44° C | 47% | 1016.2 hPa | 0 mm | 0.45 m/s, 87° | 137 W/m² | - |
| 1778009819 | 29.44° C | 48% | 1016.2 hPa | 0 mm | 0.89 m/s, 123° | 532 W/m² | - |
| 1778009517 | 28.89° C | 49% | 1016.2 hPa | 0 mm | 0.89 m/s, 56° | 433 W/m² | - |
| 1778009215 | 28.89° C | 48% | 1016.4 hPa | 0 mm | 1.34 m/s, 81° | 181 W/m² | - |
| 1778008912 | 29.44° C | 48% | 1016.3 hPa | 0 mm | 1.79 m/s, 192° | 171 W/m² | - |
| 1778008610 | 29.44° C | 48% | 1016.6 hPa | 0 mm | 1.79 m/s, 133° | 157 W/m² | - |
| 1778008308 | 29.44° C | 49% | 1016.4 hPa | 0 mm | 0.45 m/s, 104° | 433 W/m² | - |
| 1778008004 | 30° C | 48% | 1016.5 hPa | 0 mm | 0.89 m/s, 34° | 265 W/m² | - |
| 1778007704 | 30.56° C | 48% | 1016.6 hPa | 0 mm | 1.79 m/s, 46° | 283 W/m² | - |
| 1778007401 | 31.67° C | 45% | 1016.5 hPa | 0 mm | 0 m/s | 287 W/m² | - |
| 1778007097 | 30.56° C | 47% | 1016.7 hPa | 0 mm | 0.45 m/s, 91° | 545 W/m² | - |
| 1778006794 | 29.44° C | 49% | 1016.9 hPa | 0 mm | 0.89 m/s, 59° | 600 W/m² | - |
| 1778006491 | 30° C | 47% | 1016.8 hPa | 0 mm | 1.79 m/s, 151° | 665 W/m² | - |
| 1778006188 | 30.56° C | 47% | 1016.8 hPa | 0 mm | 0.89 m/s, 122° | 423 W/m² | - |
| 1778005886 | 30.56° C | 45% | 1016.9 hPa | 0 mm | 0.45 m/s, 80° | 376 W/m² | - |
| 1778005581 | 31.11° C | 46% | 1017 hPa | 0 mm | 0.45 m/s, 98° | 238 W/m² | - |
* Rain latest hour (hover to see other rain measurements)
** Current wind speed in m/s (hover to see current wind gust speed)